User: anonymous   Login
Location: Unspecified
(0.0000°N, 0.0000°E)
Time: 14:45:10
(UTC+00:00)
Language:

OBJECT PE - Orbit

View from above orbital plane
View from above orbital plane
View from above satellite
View from above satellite

Ground track
Ground track

The orbit data is extracted from the following two-line orbital elements,

1 43590U 98067PE  19047.77494181  .00009228  00000-0  12462-3 0  9992
2 43590  51.6357 236.0741 0005775  61.5761 298.5813 15.58550888 29643
Epoch (UTC): 16 February 2019 18:35:54
Eccentricity: 0.0005775
inclination: 51.6357°
perigee height: 388 km
apogee height: 396 km
right ascension of ascending node: 236.0741°
argument of perigee: 61.5761°
revolutions per day: 15.58550888
mean anomaly at epoch: 298.5813°
orbit number at epoch: 2964

The dashed part of the orbit path shows where the satellite is in the earth's shadow,  

DLR